STARLINK-31848, 59784

Orbit data source: Space-Track

STARLINK-31848, 59784 is a payload satellite owned by SpaceX/Seattle (US) in LEO that was launched on Sat, 18 May 2024 UTC via an FALCON 9 launch vehicle from the Air Force Eastern Test Range (AFETR). Payloads include a variety of satellites, spacecraft, and rockets equipped with specific instruments for various scientific and technological missions. These include communications satellites like Starlink; space stations such as the ISS; scientific satellites like the Hubble; Earth observation satellites from companies like Planet Labs, Umbra, and HawkEye 360; GPS; miniature CubeSats for education and research; and military/defense satellites.

Loading next visibility...
STARLINK-31848 details
Identifier
59784, 2024-093C
Orbit
LEO
Last TLE update19 hours ago
Origin
Flag of USSpaceX/Seattle (US)
ManufacturerSpaceX/Seattle
MissionOperational spacecraft
Bus & MotorSTARLINK V2M, Unknown motor
Mass730 kg wet, ~700 kg dry
Launch date (UTC)
2024-05-18 (8 months ago)
Launch vehicle
FALCON 9
Launch site
Air Force Eastern Test Range (AFETR)
Object type
Payload
Rocket body
Debris
Shape & HBRUnknown
Radar Cross SectionLarge (>1 m²)

Expand to show TLE details & history

TLE from 19 hours ago
0 STARLINK-31848
1 59784U 24093C   25014.49582136 -.00002465  00000-0 -51763-4 0  9996
2 59784  43.0028  61.6124 0002149 268.7256  91.3355 15.40696372 38521
Epoch: 2025-01-14T11:53Z
Definitive object data (Epoch: 2025-01-14T11:53:58.965Z)
Latitude0.00002°
Longitude128.91505°
Altitude443.862 km
Speed7.648 km/s
True Right ascension04h 06m 26s
True Declination0° 00' 00"
Sunlit
Object was in full shadow at TLE epoch
Visualization TLE readout
Latitude43.16033°
Longitude-146.25779°
Altitude448.668 km
Speed7.648 km/s
Apparent Right ascension14h 34m 14s
Apparent Declination11° 51' 59"
Sunlit
Object is in full shadow
Visualization observer readout
Local Sidereal Time07:36:53
Azimuth71.721° E
Elevation-3.089°
Doppler factor1
Orbital elements
Apogee altitude447.475 km
Perigee altitude444.542 km
Semi-major axis6,824.146 km
Eccentricity0.0002149
Inclination43.0028°
RAAN61.6124°
Arg. of periapsis268.7256°
True anomaly91.36012°
Mean anomaly91.3355°
Eccentric anomaly91.34781°
Mean motion3.85009 °/min
BSTAR-0.000051763
Orbital period93.5 mins
Loading maneuver chart data...
Loading historical data...
Loading historical data...
Loading historical data...
Loading historical data...
Loading historical data...
Loading historical data...
Loading historical data...

STARLINK-31848 Visibility forecast

Observer location: undefined°, undefined

Span
Click to sort rows by Start time (UTC) header in descending order
Start Az.
Max El. time (UTC)
Max El. Az.
Max El.
End time (UTC)
End Az.
6 mins2025-01-15 08:26:25.969Z278.811° WNW2025-01-15 08:29:25.969Z22.818° NE37.095°2025-01-15 08:32:25.969Z71.66° E
5 mins2025-01-15 10:05:25.969Z297.072° NW2025-01-15 10:07:25.969Z20.622° NNE41.051°2025-01-15 10:10:25.969Z91.492° ESE
5 mins2025-01-15 11:43:25.969Z267.866° W2025-01-15 11:45:25.969Z203.793° SW33.522°2025-01-15 11:48:25.969Z137.559° SSE
5 mins2025-01-16 06:08:25.969Z221.252° SW2025-01-16 06:10:25.969Z161.18° S36.757°2025-01-16 06:13:25.969Z80.919° E
|